STARLINK-32230, 60366

Orbit data source: Space-Track

STARLINK-32230, 60366 is a payload satellite owned by SpaceX/Seattle (US) in LEO that was launched on Sun, 04 Aug 2024 UTC via an FALCON 9 launch vehicle from the Air Force Western Test Range (AFWTR). Payload-class satellites include a variety of spacecraft equipped with specific instruments for various scientific and technological missions. These include communications satellites like Starlink; space stations such as the ISS; scientific satellites like the Hubble; Earth observation satellites from companies like Planet Labs, Umbra, and HawkEye 360; GPS; miniature CubeSats for education and research; and military/defense satellites.

Loading next visibility...
Identifier
60366, 2024-138M
Orbit
LEO
Last TLE update
13 hours ago
Origin
Manufacturer
SpaceX/Seattle
Mission
Operational Commercial Communications
Bus & Motor
STARLINK V2M, Unknown motor
Mass
730 kg wet, ~700 kg dry
Launch date (UTC)
2024-08-04 (11 months ago)
Launch vehicle
FALCON 9
Launch site
Air Force Western Test Range (AFWTR)
Object type
Payload
Rocket body
Debris
Shape & HBR
Box + 2 Pan, 29 m
Radar Cross Section
33.884 m², Large (>1 m²)

Expand to show TLE details & history

TLE from 13 hours ago
0 STARLINK-32230
1 60366U 24138M   25181.89196884  .00000252  00000-0  20636-4 0  9999
2 60366  53.1608  39.3670 0001107  83.2461 276.8665 15.30196929 52065
Epoch: 2025-06-30T21:24Z
TLE epoch observation values (Epoch: 2025-06-30T21:24:26.107Z)
Latitude
-0.00009°
Longitude
159.06289°
Altitude
476.033 km
Speed
7.629 km/s
True Right ascension
02h 37m 28s
True Declination
0° 00' 00"
Sunlit
Object was in daylight at epoch
Visualization orbit readout
Latitude
-0.1711°
Longitude
156.50796°
Altitude
476.078 km
Speed
7.629 km/s
Apparent Right ascension
05h 10m 32s
Apparent Declination
-29° 43' 10"
Sunlit
Object is in daylight
Visualization observer readout
Local Sidereal Time
21:35:10
Azimuth
101.04° ESE
Elevation
-35.969°
Doppler factor
1
Orbital elements
Apogee altitude
476.239 km
Perigee altitude
474.722 km
Semi-major axis
6,853.618 km
Eccentricity
0.00011
Inclination
53.1608°
RAAN
39.367°
Arg. of periapsis
83.2461°
True anomaly
Unknown
Mean anomaly
276.8665°
Eccentric anomaly
Unknown
Mean motion
3.82528 °/min
Orbital period
94.11 mins
BSTAR
0.000020636
Loading maneuver chart data...
Loading SW <> Apogee altitude chart data...
Loading historical data...
Loading historical data...
Loading historical data...
Loading historical data...
Loading historical data...
Loading historical data...
Loading historical data...

STARLINK-32230 Visibility forecast

Observer location: undefined°, undefined°

Span
Click to sort rows by Start time (UTC) header in descending order
Start Az.
Max El. time (UTC)
Max El. Az.
Max El.
End time (UTC)
End Az.
5 mins2025-07-01 16:22:48.170Z181.482° SSW2025-07-01 16:24:48.170Z139.048° SSE24.376°2025-07-01 16:27:48.170Z75.452° E
5 mins2025-07-01 18:00:48.170Z270.773° WNW2025-07-01 18:02:48.170Z324.732° NNW30.69°2025-07-01 18:05:48.170Z33.115° NE
5 mins2025-07-01 22:57:48.170Z341.033° N2025-07-01 22:59:48.170Z29.695° NE25.535°2025-07-01 23:02:48.170Z89.393° E
5 mins2025-07-02 00:35:48.170Z283.325° WNW2025-07-02 00:37:48.170Z224.665° SW32.031°2025-07-02 00:40:48.170Z159.344° S
|